Date,TemperatureHighF,TemperatureAvgF,TemperatureLowF,DewpointHighF,DewpointAvgF,DewpointLowF,HumidityHigh,HumidityAvg,HumidityLow,PressureMaxIn,PressureMinIn,WindSpeedMaxMPH,WindSpeedAvgMPH,GustSpeedMaxMPH,PrecipitationSumIn
2014-1-1,44.2,31.1,19.2,26.7,3.6,-20.1,99,43,10,29.68,26.69,10,2,10,0.00
2014-1-2,45.1,32.2,13.5,44.9,30.4,13.3,99,94,72,29.79,26.74,21,2,21,0.24
2014-1-3,25.7,11.3,5.4,17.3,-1.8,-18.6,99,64,19,29.99,26.58,2,0,2,0.26
2014-1-4,35.2,23.8,11.8,34.8,-5.5,-30.5,99,35,10,31.65,27.02,11,3,11,0.00
2014-1-5,42.3,38.0,34.7,42.0,37.8,34.3,99,99,99,30.43,29.48,11,2,11,0.04
2014-1-6,42.1,16.0,-7.2,40.1,7.4,-25.1,99,71,32,30.13,27.21,21,1,21,0.06
2014-1-7,13.3,-0.8,-10.3,-8.0,-26.1,-38.5,57,31,10,29.80,26.58,0,0,0,0.00
2014-1-8,44.4,21.8,3.0,5.8,-11.3,-35.8,67,27,10,30.87,28.14,8,1,8,0.00
2014-1-9,36.5,24.7,17.8,31.1,9.3,-19.0,99,64,10,30.69,28.98,5,0,5,0.00
2014-1-10,33.4,32.3,32.0,32.5,31.9,31.1,99,99,91,29.63,29.44,2,0,2,0.00
2014-1-11,33.3,23.0,16.0,9.5,-7.6,-29.2,63,32,10,30.56,28.17,4,2,4,0.00
2014-1-12,41.0,33.8,27.7,9.1,3.9,-11.6,45,31,10,28.76,28.67,11,9,11,3.10
2014-1-13,45.5,37.1,27.5,33.8,27.5,15.1,99,72,33,31.12,29.38,6,2,6,0.00
2014-1-14,45.3,41.0,36.0,44.7,32.9,21.7,99,76,41,34.10,30.24,27,7,27,0.12
2014-1-15,31.8,29.3,24.8,31.6,29.1,24.6,99,99,99,30.38,29.22,16,6,16,0.00
2014-1-16,42.1,27.9,14.5,20.8,-2.5,-19.4,97,39,10,32.26,28.48,12,3,12,0.02
2014-1-17,50.4,27.3,18.9,25.8,12.5,-10.7,99,63,10,31.99,29.14,21,5,21,0.01
2014-1-18,29.1,20.6,9.5,13.3,1.7,-21.3,95,48,10,30.86,28.07,22,6,22,0.07
2014-1-19,36.9,31.2,23.9,27.9,14.4,1.8,93,51,32,31.08,29.40,23,6,23,0.00
2014-1-30,30.2,29.7,29.5,8.0,6.7,6.0,38,37,37,30.09,30.09,5,3,6,0.01